{"data":{"norad_id":49422,"intl_designator":"2021-104Q","name":"STARLINK-3161","alt_names":[],"object_type":"PAYLOAD","status":"ACTIVE","operator":null,"country":"US","launch_date":"2021-11-13","launch_site_code":"AFETR","launch_vehicle":null,"mission":null,"orbit_class":"UNKNOWN","rcs_meters":null,"size_class":null,"mass_kg":null,"dimensions":null,"purposes":["comms"],"wikipedia_slug":null,"has_3d_model":false,"image_url":null,"decayed_at":null,"tle_current":{"epoch":"2026-05-24T16:55:12.343008Z","epoch_age_seconds":107437,"freshness":"FRESH","line1":"1 49422U 21104Q   26144.70500397  .00001307  00000+0  10022-3 0  9995","line2":"2 49422  53.2157 248.1917 0001265  92.7296 267.3841 15.08836343250095","mean_motion":15.08836343,"eccentricity":0.0001265,"inclination_deg":53.2157,"raan_deg":248.1917,"arg_perigee_deg":92.7296,"mean_anomaly_deg":267.3841,"bstar":0.00010022,"rev_number":25009,"period_min":95.437785991877,"perigee_km":538.87945368945,"apogee_km":540.6296802559,"semimajor_km":6917.8915669727,"source":"CELESTRAK","updated_at":"2026-05-25T13:38:16.797468Z"}}}